STARLINK-32615, 62034

Orbit data source: Space-Track

STARLINK-32615, 62034 is a payload satellite owned by SpaceX/Seattle (US) in LEO that was launched on Thu, 21 Nov 2024 UTC via an FALCON 9 launch vehicle from the Air Force Eastern Test Range (AFETR). Payload-class satellites include a variety of spacecraft equipped with specific instruments for various scientific and technological missions. These include communications satellites like Starlink; space stations such as the ISS; scientific satellites like the Hubble; Earth observation satellites from companies like Planet Labs, Umbra, and HawkEye 360; GPS; miniature CubeSats for education and research; and military/defense satellites.

Loading next visibility...
Identifier
62034, 2024-216C
Orbit
LEO
Country
Flag of USUS
Related business
Manufacturer
SpaceX/Seattle
Mission
Operational Commercial Communications
Bus & Motor
STARLINK V2M, Unknown motor
Mass
730 kg wet, ~700 kg dry
Launch date (UTC)
2024-11-21 (1 year ago)
Launch vehicle
FALCON 9
Launch site
Air Force Eastern Test Range (AFETR)
Object type
Payload
Rocket body
Debris
Shape & HBR
Box + 2 Pan, 17.7 m
Radar Cross Section
33.884 m², Large (>1 m²)

Expand to show TLE details & history
Last TLE update: 1 day ago

TLE from 1 day ago
0 STARLINK-32615
1 62034U 24216C   25351.10232448  .00018807  00000-0  69074-3 0  9993
2 62034  43.0012   2.8472 0001576 250.1024 109.9658 15.27602051 60084
Epoch: 2025-12-17T02:27Z
TLE epoch observation values (Epoch: 2025-12-17T02:27:20.835Z)
Latitude
Longitude
-119.96661°
Altitude
483.128 km
Speed
7.625 km/s
True Right ascension
00h 11m 23s
True Declination
0° 00' 00"
Sunlit
Object was in daylight at epoch
Visualization orbit readout
Latitude
Unknown
Longitude
Unknown
Altitude
Unknown
Speed
Unknown
Apparent Right ascension
Unknown
Apparent Declination
Unknown
Sunlit
N/A
Visualization observer readout
Local Sidereal Time
05:06:42
Azimuth
Unknown
Elevation
Unknown
Doppler factor
Unknown
Orbital elements
Apogee altitude
486.01 km
Perigee altitude
483.846 km
Semi-major axis
6,863.065 km
Eccentricity
0.00016
Inclination
43.0012°
RAAN
2.8472°
Arg. of periapsis
250.1024°
True anomaly
109.98277°
Mean anomaly
109.9658°
Eccentric anomaly
109.97429°
Mean motion
3.81739 °/min
Orbital period
94.31 mins
BSTAR
0.00069074
Loading maneuver chart data...
Computing Atmospheric mass density...
Loading historical data...
Loading historical data...
Loading historical data...
Loading historical data...
Loading historical data...
Loading historical data...
Loading historical data...

Documentation

Showing up to 5 results
|